| time (UTC) | temp F | wind direction | speed MPH | gust MPH | rain 1hr in | rain 24hr in | rain mn in | humidity % | barometer mb |
| 20260507164031 | 54 | 0 | 0.0 | 0.0 | 0.00 | 0.05 | 0.05 | 88 | 1012.1 |
| 20260507163532 | 54 | 0 | 0.0 | 0.0 | 0.00 | 0.05 | 0.05 | 88 | 1012.2 |
| 20260507163041 | 53 | 0 | 0.0 | 0.0 | 0.00 | 0.05 | 0.05 | 88 | 1012.2 |
| 20260507162531 | 53 | 0 | 0.0 | 0.0 | 0.00 | 0.05 | 0.05 | 88 | 1012.2 |
| 20260507162032 | 53 | 0 | 0.0 | 2.0 | 0.01 | 0.05 | 0.05 | 88 | 1012.2 |
| 20260507161544 | 53 | 0 | 0.0 | 2.0 | 0.01 | 0.05 | 0.05 | 89 | 1012.1 |
| 20260507161031 | 53 | 0 | 0.0 | 0.0 | 0.01 | 0.05 | 0.05 | 89 | 1012.0 |
| 20260507160532 | 53 | 0 | 0.0 | 0.0 | 0.01 | 0.05 | 0.05 | 89 | 1012.1 |
| 20260507160045 | 53 | 0 | 0.0 | 0.0 | 0.01 | 0.05 | 0.05 | 89 | 1012.2 |
| 20260507155533 | 53 | 0 | 0.0 | 0.0 | 0.01 | 0.06 | 0.05 | 89 | 1012.2 |
| 20260507155032 | 53 | 0 | 0.0 | 0.0 | 0.01 | 0.06 | 0.05 | 88 | 1012.3 |
| 20260507154542 | 52 | 0 | 0.0 | 2.0 | 0.01 | 0.06 | 0.05 | 88 | 1012.4 |
| 20260507154031 | 53 | 0 | 0.0 | 2.0 | 0.01 | 0.06 | 0.05 | 88 | 1012.3 |
| 20260507153531 | 53 | 0 | 0.0 | 2.0 | 0.01 | 0.06 | 0.05 | 88 | 1012.4 |
| 20260507153049 | 53 | 0 | 0.0 | 3.0 | 0.01 | 0.06 | 0.05 | 87 | 1012.4 |
| 20260507152532 | 54 | 0 | 0.0 | 4.0 | 0.01 | 0.06 | 0.05 | 86 | 1012.2 |
| 20260507152032 | 55 | 0 | 0.0 | 4.0 | 0.00 | 0.05 | 0.04 | 86 | 1012.2 |
| 20260507151545 | 55 | 206 | 0.0 | 4.0 | 0.00 | 0.05 | 0.04 | 86 | 1012.2 |
| 20260507151032 | 55 | 0 | 0.0 | 4.0 | 0.00 | 0.05 | 0.04 | 85 | 1012.3 |
| 20260507150532 | 56 | 0 | 0.0 | 0.0 | 0.00 | 0.05 | 0.04 | 85 | 1012.1 |
| 20260507150042 | 56 | 0 | 0.0 | 0.0 | 0.00 | 0.05 | 0.04 | 86 | 1012.0 |
| 20260507145532 | 56 | 0 | 0.0 | 0.0 | 0.00 | 0.11 | 0.04 | 86 | 1012.1 |
| 20260507145032 | 56 | 0 | 0.0 | 0.0 | 0.00 | 0.11 | 0.04 | 86 | 1012.0 |
| 20260507144540 | 56 | 0 | 0.0 | 0.0 | 0.00 | 0.11 | 0.04 | 86 | 1012.0 |
| 20260507144033 | 56 | 0 | 0.0 | 0.0 | 0.00 | 0.11 | 0.04 | 87 | 1012.0 |
| 20260507143532 | 56 | 0 | 0.0 | 3.0 | 0.00 | 0.11 | 0.04 | 87 | 1012.0 |
| 20260507143052 | 56 | 0 | 0.0 | 3.0 | 0.00 | 0.11 | 0.04 | 86 | 1011.9 |
| 20260507142532 | 56 | 0 | 0.0 | 3.0 | 0.00 | 0.11 | 0.04 | 87 | 1012.1 |
| 20260507142032 | 56 | 0 | 0.0 | 2.0 | 0.00 | 0.11 | 0.04 | 87 | 1012.0 |
| 20260507141542 | 56 | 308 | 0.0 | 0.0 | 0.00 | 0.11 | 0.04 | 87 | 1012.1 |
| 20260507141033 | 56 | 0 | 0.0 | 0.0 | 0.00 | 0.11 | 0.04 | 87 | 1012.2 |
| 20260507140532 | 56 | 0 | 0.0 | 0.0 | 0.00 | 0.11 | 0.04 | 87 | 1012.1 |
| 20260507140045 | 56 | 0 | 0.0 | 0.0 | 0.00 | 0.11 | 0.04 | 87 | 1012.3 |
| 20260507135532 | 56 | 0 | 0.0 | 0.0 | 0.00 | 0.15 | 0.04 | 86 | 1012.3 |
| 20260507135029 | 56 | 0 | 0.0 | 0.0 | 0.00 | 0.15 | 0.04 | 87 | 1012.3 |
| 20260507134551 | 56 | 0 | 0.0 | 0.0 | 0.00 | 0.15 | 0.04 | 87 | 1012.3 |
| 20260507134032 | 56 | 0 | 0.0 | 3.0 | 0.00 | 0.15 | 0.04 | 87 | 1012.3 |
| 20260507133532 | 56 | 0 | 0.0 | 3.0 | 0.00 | 0.15 | 0.04 | 86 | 1012.4 |
| 20260507133042 | 56 | 0 | 0.0 | 0.0 | 0.00 | 0.15 | 0.04 | 86 | 1012.2 |
| 20260507132531 | 56 | 0 | 0.0 | 0.0 | 0.00 | 0.15 | 0.04 | 87 | 1012.1 |
| 20260507132031 | 56 | 0 | 0.0 | 1.0 | 0.00 | 0.15 | 0.04 | 87 | 1011.9 |
| 20260507131541 | 56 | 0 | 0.0 | 1.0 | 0.00 | 0.15 | 0.04 | 87 | 1012.1 |
| 20260507131032 | 56 | 0 | 0.0 | 1.0 | 0.00 | 0.15 | 0.04 | 87 | 1011.8 |
| 20260507130532 | 56 | 0 | 0.0 | 0.0 | 0.00 | 0.15 | 0.04 | 87 | 1011.8 |
| 20260507130042 | 56 | 0 | 0.0 | 0.0 | 0.00 | 0.15 | 0.04 | 87 | 1012.1 |
| 20260507125531 | 56 | 0 | 0.0 | 1.0 | 0.00 | 0.15 | 0.04 | 87 | 1012.1 |
| 20260507125030 | 56 | 0 | 0.0 | 1.0 | 0.00 | 0.15 | 0.04 | 88 | 1012.0 |
| 20260507124543 | 55 | 0 | 0.0 | 1.0 | 0.00 | 0.15 | 0.04 | 88 | 1012.0 |
| 20260507124029 | 55 | 0 | 0.0 | 0.0 | 0.00 | 0.15 | 0.04 | 88 | 1012.0 |
| 20260507123529 | 55 | 0 | 0.0 | 0.0 | 0.00 | 0.15 | 0.04 | 88 | 1012.2 |
| 20260507123040 | 55 | 0 | 0.0 | 0.0 | 0.00 | 0.15 | 0.04 | 88 | 1011.8 |
| 20260507122529 | 55 | 0 | 0.0 | 3.0 | 0.00 | 0.15 | 0.04 | 88 | 1011.9 |
| 20260507122028 | 54 | 0 | 0.0 | 3.0 | 0.00 | 0.15 | 0.04 | 88 | 1012.1 |
| 20260507121541 | 54 | 0 | 0.0 | 3.0 | 0.00 | 0.15 | 0.04 | 88 | 1012.0 |
| 20260507121034 | 54 | 0 | 0.0 | 0.0 | 0.00 | 0.15 | 0.04 | 88 | 1012.0 |
| 20260507120528 | 54 | 0 | 0.0 | 0.0 | 0.00 | 0.15 | 0.04 | 88 | 1012.0 |
| 20260507120040 | 54 | 0 | 0.0 | 0.0 | 0.00 | 0.15 | 0.04 | 88 | 1011.8 |
| 20260507115531 | 54 | 0 | 0.0 | 0.0 | 0.00 | 0.15 | 0.04 | 88 | 1011.8 |
| 20260507115032 | 54 | 0 | 0.0 | 0.0 | 0.00 | 0.15 | 0.04 | 88 | 1011.9 |
| 20260507114538 | 54 | 0 | 0.0 | 0.0 | 0.00 | 0.15 | 0.04 | 88 | 1011.9 |
| 20260507114033 | 54 | 0 | 0.0 | 0.0 | 0.00 | 0.15 | 0.04 | 88 | 1012.0 |
| 20260507113531 | 54 | 0 | 0.0 | 0.0 | 0.00 | 0.15 | 0.04 | 89 | 1012.0 |
| 20260507113043 | 54 | 0 | 0.0 | 0.0 | 0.00 | 0.15 | 0.04 | 88 | 1012.0 |
| 20260507112531 | 54 | 0 | 0.0 | 0.0 | 0.00 | 0.15 | 0.04 | 88 | 1012.0 |
| 20260507112030 | 54 | 0 | 0.0 | 0.0 | 0.00 | 0.15 | 0.04 | 88 | 1011.8 |
| 20260507111542 | 54 | 0 | 0.0 | 0.0 | 0.00 | 0.15 | 0.04 | 88 | 1011.7 |
| 20260507111028 | 54 | 0 | 0.0 | 0.0 | 0.00 | 0.15 | 0.04 | 88 | 1011.5 |
| 20260507110531 | 54 | 0 | 0.0 | 0.0 | 0.00 | 0.15 | 0.04 | 89 | 1011.4 |
| 20260507110048 | 55 | 0 | 0.0 | 0.0 | 0.00 | 0.15 | 0.04 | 88 | 1011.5 |
| 20260507105528 | 55 | 0 | 0.0 | 0.0 | 0.00 | 0.15 | 0.04 | 88 | 1011.7 |
| 20260507105031 | 55 | 0 | 0.0 | 0.0 | 0.00 | 0.15 | 0.04 | 88 | 1011.6 |
| 20260507104540 | 55 | 0 | 0.0 | 0.0 | 0.00 | 0.15 | 0.04 | 88 | 1011.5 |
| 20260507104032 | 55 | 0 | 0.0 | 0.0 | 0.00 | 0.15 | 0.04 | 88 | 1011.4 |
| 20260507103531 | 55 | 0 | 0.0 | 0.0 | 0.00 | 0.15 | 0.04 | 88 | 1011.2 |
| 20260507103038 | 55 | 0 | 0.0 | 0.0 | 0.00 | 0.15 | 0.04 | 88 | 1011.2 |
| 20260507102531 | 55 | 0 | 0.0 | 0.0 | 0.00 | 0.15 | 0.04 | 88 | 1011.2 |
| 20260507102031 | 55 | 0 | 0.0 | 0.0 | 0.00 | 0.15 | 0.04 | 88 | 1011.0 |
| 20260507101547 | 55 | 0 | 0.0 | 0.0 | 0.00 | 0.15 | 0.04 | 88 | 1011.0 |
| 20260507101033 | 55 | 0 | 0.0 | 0.0 | 0.00 | 0.15 | 0.04 | 88 | 1010.6 |
| 20260507100532 | 55 | 0 | 0.0 | 0.0 | 0.00 | 0.15 | 0.04 | 88 | 1010.5 |
| 20260507100045 | 55 | 0 | 0.0 | 0.0 | 0.00 | 0.15 | 0.04 | 88 | 1010.9 |
| 20260507095533 | 55 | 0 | 0.0 | 0.0 | 0.01 | 0.15 | 0.04 | 88 | 1011.0 |
| 20260507095033 | 55 | 0 | 0.0 | 0.0 | 0.01 | 0.15 | 0.04 | 88 | 1011.1 |
| 20260507094539 | 55 | 0 | 0.0 | 0.0 | 0.01 | 0.15 | 0.04 | 88 | 1011.4 |
| 20260507094033 | 55 | 0 | 0.0 | 0.0 | 0.02 | 0.15 | 0.04 | 88 | 1011.5 |
| 20260507093532 | 55 | 0 | 0.0 | 0.0 | 0.03 | 0.15 | 0.04 | 88 | 1011.2 |
| 20260507093040 | 56 | 0 | 0.0 | 0.0 | 0.03 | 0.15 | 0.04 | 88 | 1011.4 |
| 20260507092534 | 56 | 0 | 0.0 | 0.0 | 0.03 | 0.15 | 0.04 | 89 | 1011.4 |
| 20260507092033 | 56 | 0 | 0.0 | 0.0 | 0.03 | 0.15 | 0.04 | 88 | 1011.4 |
| 20260507091604 | 56 | 0 | 0.0 | 0.0 | 0.04 | 0.15 | 0.04 | 88 | 1011.2 |
| 20260507091034 | 57 | 0 | 0.0 | 0.0 | 0.04 | 0.15 | 0.04 | 88 | 1011.0 |
| 20260507090532 | 57 | 0 | 0.0 | 2.0 | 0.04 | 0.15 | 0.04 | 88 | 1011.1 |
| 20260507090046 | 57 | 0 | 0.0 | 4.0 | 0.04 | 0.15 | 0.04 | 88 | 1010.9 |
| 20260507085532 | 58 | 0 | 0.0 | 4.0 | 0.03 | 0.14 | 0.03 | 88 | 1010.8 |
| 20260507085033 | 59 | 0 | 0.0 | 4.0 | 0.03 | 0.14 | 0.03 | 88 | 1010.7 |
| 20260507084542 | 60 | 180 | 0.0 | 4.0 | 0.03 | 0.14 | 0.03 | 88 | 1010.5 |
| 20260507084032 | 61 | 0 | 1.0 | 4.0 | 0.02 | 0.13 | 0.02 | 88 | 1010.5 |
| 20260507083533 | 62 | 172 | 0.0 | 4.0 | 0.01 | 0.12 | 0.01 | 88 | 1010.3 |
| 20260507083041 | 63 | 0 | 0.0 | 5.0 | 0.01 | 0.12 | 0.01 | 88 | 1010.3 |
| 20260507082531 | 64 | 180 | 1.0 | 5.0 | 0.01 | 0.12 | 0.01 | 88 | 1010.2 |
| 20260507082032 | 64 | 0 | 0.0 | 0.0 | 0.01 | 0.12 | 0.01 | 87 | 1009.9 |
| 20260507081549 | 64 | 0 | 0.0 | 0.0 | 0.00 | 0.11 | 0.00 | 87 | 1009.8 |
| 20260507081032 | 64 | 0 | 0.0 | 0.0 | 0.00 | 0.11 | 0.00 | 87 | 1010.0 |
| 20260507080532 | 64 | 0 | 0.0 | 0.0 | 0.00 | 0.11 | 0.00 | 87 | 1010.2 |
| 20260507080040 | 64 | 0 | 0.0 | 0.0 | 0.00 | 0.11 | 0.00 | 87 | 1010.2 |
| 20260507075532 | 64 | 0 | 0.0 | 0.0 | 0.00 | 0.11 | 0.00 | 87 | 1010.1 |
| 20260507075033 | 64 | 0 | 0.0 | 0.0 | 0.00 | 0.11 | 0.00 | 87 | 1009.8 |
| 20260507074546 | 65 | 0 | 0.0 | 0.0 | 0.00 | 0.11 | 0.00 | 87 | 1009.6 |
| 20260507074033 | 65 | 0 | 0.0 | 0.0 | 0.00 | 0.11 | 0.00 | 88 | 1009.4 |
| 20260507073535 | 65 | 0 | 0.0 | 0.0 | 0.00 | 0.11 | 0.00 | 88 | 1009.2 |
| 20260507073043 | 65 | 0 | 0.0 | 0.0 | 0.00 | 0.11 | 0.00 | 88 | 1009.2 |
| 20260507072533 | 65 | 0 | 0.0 | 0.0 | 0.00 | 0.11 | 0.00 | 88 | 1009.6 |
| 20260507072035 | 65 | 0 | 0.0 | 0.0 | 0.00 | 0.11 | 0.00 | 88 | 1009.6 |
| 20260507071543 | 65 | 0 | 0.0 | 0.0 | 0.00 | 0.11 | 0.00 | 88 | 1009.3 |
| 20260507071034 | 66 | 0 | 0.0 | 0.0 | 0.00 | 0.11 | 0.00 | 88 | 1009.4 |
| 20260507070532 | 66 | 0 | 0.0 | 0.0 | 0.00 | 0.11 | 0.00 | 87 | 1009.5 |
| 20260507070059 | 66 | 0 | 0.0 | 0.0 | 0.00 | 0.11 | 0.00 | 87 | 1009.6 |
| 20260507065532 | 66 | 0 | 0.0 | 0.0 | 0.00 | 0.11 | 0.00 | 87 | 1009.4 |
| 20260507065032 | 67 | 0 | 0.0 | 0.0 | 0.00 | 0.11 | 0.00 | 87 | 1009.2 |
| 20260507064541 | 67 | 0 | 0.0 | 0.0 | 0.00 | 0.11 | 0.00 | 86 | 1009.1 |
| 20260507064033 | 67 | 0 | 0.0 | 1.0 | 0.00 | 0.11 | 0.00 | 86 | 1009.1 |
| 20260507063532 | 67 | 0 | 0.0 | 1.0 | 0.00 | 0.11 | 0.00 | 86 | 1008.9 |
| 20260507063040 | 67 | 0 | 0.0 | 1.0 | 0.00 | 0.11 | 0.00 | 85 | 1008.9 |
| 20260507062535 | 68 | 0 | 0.0 | 1.0 | 0.00 | 0.11 | 0.00 | 85 | 1009.0 |
| 20260507062034 | 68 | 0 | 0.0 | 0.0 | 0.00 | 0.11 | 0.00 | 85 | 1009.0 |
| 20260507061545 | 68 | 0 | 0.0 | 1.0 | 0.00 | 0.11 | 0.00 | 84 | 1008.8 |
| 20260507061031 | 68 | 0 | 0.0 | 1.0 | 0.00 | 0.11 | 0.00 | 85 | 1008.8 |
| 20260507060531 | 68 | 0 | 0.0 | 0.0 | 0.00 | 0.11 | 0.00 | 84 | 1008.8 |
| 20260507060054 | 68 | 0 | 0.0 | 0.0 | 0.00 | 0.11 | 0.00 | 84 | 1008.6 |
| 20260507055533 | 68 | 0 | 0.0 | 0.0 | 0.00 | 0.11 | 0.00 | 84 | 1008.7 |
| 20260507055033 | 68 | 0 | 0.0 | 0.0 | 0.00 | 0.11 | 0.00 | 84 | 1008.7 |
| 20260507054547 | 68 | 0 | 0.0 | 0.0 | 0.00 | 0.11 | 0.00 | 84 | 1008.8 |
| 20260507054033 | 68 | 0 | 0.0 | 0.0 | 0.00 | 0.11 | 0.00 | 84 | 1008.9 |
| 20260507053534 | 68 | 0 | 0.0 | 0.0 | 0.00 | 0.11 | 0.00 | 84 | 1008.9 |
| 20260507053048 | 68 | 0 | 0.0 | 0.0 | 0.00 | 0.11 | 0.00 | 84 | 1008.7 |
| 20260507052532 | 68 | 0 | 0.0 | 0.0 | 0.00 | 0.11 | 0.00 | 84 | 1008.8 |
| 20260507052029 | 68 | 0 | 0.0 | 1.0 | 0.00 | 0.11 | 0.00 | 84 | 1008.9 |
| 20260507051542 | 68 | 0 | 0.0 | 1.0 | 0.00 | 0.11 | 0.00 | 84 | 1008.9 |
| 20260507051032 | 68 | 0 | 0.0 | 0.0 | 0.00 | 0.11 | 0.00 | 84 | 1009.2 |
| 20260507050534 | 68 | 0 | 0.0 | 3.0 | 0.00 | 0.11 | 0.00 | 84 | 1009.2 |
| 20260507050050 | 68 | 0 | 0.0 | 3.0 | 0.00 | 0.11 | 0.00 | 84 | 1009.6 |
| 20260507045534 | 68 | 0 | 0.0 | 3.0 | 0.00 | 0.11 | 0.00 | 85 | 1009.7 |
| 20260507045033 | 68 | 0 | 0.0 | 2.0 | 0.00 | 0.11 | 0.00 | 85 | 1009.9 |
| 20260507044547 | 67 | 0 | 0.0 | 2.0 | 0.00 | 0.11 | 0.00 | 86 | 1009.9 |
| 20260507044032 | 67 | 0 | 0.0 | 2.0 | 0.00 | 0.11 | 0.00 | 86 | 1010.0 |
| 20260507043532 | 67 | 0 | 0.0 | 2.0 | 0.00 | 0.11 | 0.00 | 86 | 1010.0 |
| 20260507043042 | 67 | 0 | 0.0 | 0.0 | 0.00 | 0.11 | 0.00 | 86 | 1010.2 |
| 20260507042530 | 67 | 0 | 0.0 | 0.0 | 0.00 | 0.11 | 0.00 | 86 | 1010.1 |
| 20260507042029 | 67 | 0 | 0.0 | 0.0 | 0.00 | 0.11 | 0.00 | 86 | 1010.1 |
| 20260507041547 | 67 | 0 | 0.0 | 0.0 | 0.00 | 0.11 | 0.00 | 86 | 1010.5 |
| 20260507041032 | 67 | 0 | 0.0 | 0.0 | 0.00 | 0.11 | 0.00 | 86 | 1010.3 |
| 20260507040534 | 67 | 0 | 0.0 | 0.0 | 0.00 | 0.11 | 0.00 | 85 | 1010.1 |
| 20260507040042 | 67 | 0 | 0.0 | 0.0 | 0.00 | 0.11 | 0.00 | 85 | 1009.8 |
| 20260507035532 | 67 | 0 | 0.0 | 0.0 | 0.00 | 0.11 | 0.11 | 85 | 1009.6 |
| 20260507035032 | 67 | 0 | 0.0 | 0.0 | 0.00 | 0.11 | 0.11 | 85 | 1009.9 |
| 20260507034552 | 67 | 0 | 0.0 | 0.0 | 0.00 | 0.11 | 0.11 | 85 | 1009.9 |
| 20260507034033 | 67 | 0 | 0.0 | 0.0 | 0.00 | 0.11 | 0.11 | 85 | 1010.1 |
| 20260507033533 | 67 | 0 | 0.0 | 0.0 | 0.00 | 0.11 | 0.11 | 85 | 1010.4 |
| 20260507033046 | 67 | 0 | 0.0 | 0.0 | 0.00 | 0.11 | 0.11 | 85 | 1010.3 |
| 20260507032534 | 67 | 0 | 0.0 | 0.0 | 0.00 | 0.11 | 0.11 | 85 | 1010.2 |
| 20260507032032 | 67 | 0 | 0.0 | 0.0 | 0.00 | 0.11 | 0.11 | 85 | 1010.1 |
| 20260507031540 | 67 | 0 | 0.0 | 0.0 | 0.00 | 0.11 | 0.11 | 85 | 1009.9 |
| 20260507031033 | 67 | 0 | 0.0 | 0.0 | 0.00 | 0.11 | 0.11 | 85 | 1010.0 |
| 20260507030533 | 67 | 0 | 0.0 | 0.0 | 0.00 | 0.11 | 0.11 | 86 | 1009.7 |
| 20260507030042 | 67 | 0 | 0.0 | 0.0 | 0.00 | 0.11 | 0.11 | 86 | 1009.6 |
| 20260507025532 | 67 | 0 | 0.0 | 0.0 | 0.00 | 0.11 | 0.11 | 86 | 1009.5 |
| 20260507025033 | 67 | 0 | 0.0 | 0.0 | 0.00 | 0.11 | 0.11 | 86 | 1009.6 |
| 20260507024555 | 67 | 0 | 0.0 | 0.0 | 0.00 | 0.11 | 0.11 | 86 | 1009.6 |
| 20260507024033 | 67 | 0 | 0.0 | 0.0 | 0.00 | 0.11 | 0.11 | 86 | 1009.3 |
| 20260507023534 | 66 | 0 | 0.0 | 2.0 | 0.00 | 0.11 | 0.11 | 86 | 1009.5 |
| 20260507023042 | 66 | 0 | 0.0 | 2.0 | 0.00 | 0.11 | 0.11 | 86 | 1009.5 |
| 20260507022534 | 66 | 0 | 0.0 | 0.0 | 0.00 | 0.11 | 0.11 | 87 | 1009.7 |
| 20260507022033 | 66 | 0 | 0.0 | 0.0 | 0.00 | 0.11 | 0.11 | 87 | 1009.6 |
| 20260507021546 | 66 | 0 | 0.0 | 0.0 | 0.00 | 0.11 | 0.11 | 87 | 1009.7 |
| 20260507021032 | 66 | 0 | 0.0 | 0.0 | 0.00 | 0.11 | 0.11 | 87 | 1009.7 |
| 20260507020534 | 66 | 0 | 0.0 | 0.0 | 0.00 | 0.11 | 0.11 | 87 | 1009.9 |
| 20260507020048 | 66 | 0 | 0.0 | 0.0 | 0.00 | 0.11 | 0.11 | 87 | 1010.1 |
| 20260507015532 | 66 | 0 | 0.0 | 0.0 | 0.00 | 0.11 | 0.11 | 86 | 1010.2 |
| 20260507015032 | 66 | 0 | 0.0 | 0.0 | 0.00 | 0.11 | 0.11 | 86 | 1010.1 |
| 20260507014543 | 66 | 0 | 0.0 | 0.0 | 0.00 | 0.11 | 0.11 | 86 | 1010.1 |
| 20260507014032 | 66 | 0 | 0.0 | 0.0 | 0.00 | 0.11 | 0.11 | 86 | 1010.1 |
| 20260507013532 | 66 | 0 | 0.0 | 0.0 | 0.00 | 0.11 | 0.11 | 86 | 1010.2 |
| 20260507013036 | 66 | 0 | 0.0 | 0.0 | 0.00 | 0.11 | 0.11 | 86 | 1010.2 |
| 20260507012534 | 66 | 0 | 0.0 | 0.0 | 0.00 | 0.11 | 0.11 | 86 | 1010.1 |
| 20260507012035 | 66 | 0 | 0.0 | 0.0 | 0.00 | 0.11 | 0.11 | 86 | 1010.1 |
| 20260507011544 | 66 | 0 | 0.0 | 0.0 | 0.00 | 0.11 | 0.11 | 85 | 1010.0 |
| 20260507011032 | 67 | 0 | 0.0 | 0.0 | 0.00 | 0.11 | 0.11 | 85 | 1010.0 |
| 20260507010534 | 67 | 0 | 0.0 | 0.0 | 0.00 | 0.11 | 0.11 | 85 | 1010.0 |
| 20260507010055 | 67 | 0 | 0.0 | 0.0 | 0.00 | 0.11 | 0.11 | 85 | 1010.0 |
| 20260507005534 | 67 | 0 | 0.0 | 0.0 | 0.00 | 0.11 | 0.11 | 85 | 1009.9 |
| 20260507005033 | 67 | 0 | 0.0 | 0.0 | 0.00 | 0.11 | 0.11 | 85 | 1009.8 |
| 20260507004540 | 67 | 0 | 0.0 | 0.0 | 0.00 | 0.11 | 0.11 | 84 | 1009.7 |
| 20260507004033 | 67 | 0 | 0.0 | 0.0 | 0.00 | 0.11 | 0.11 | 84 | 1009.8 |
| 20260507003533 | 67 | 0 | 0.0 | 0.0 | 0.00 | 0.11 | 0.11 | 84 | 1010.0 |
| 20260507003041 | 68 | 0 | 0.0 | 0.0 | 0.00 | 0.11 | 0.11 | 83 | 1010.0 |
| 20260507002532 | 68 | 0 | 0.0 | 0.0 | 0.00 | 0.11 | 0.11 | 83 | 1010.1 |
| 20260507002032 | 68 | 0 | 0.0 | 0.0 | 0.00 | 0.11 | 0.11 | 83 | 1010.1 |
| 20260507001551 | 68 | 0 | 0.0 | 0.0 | 0.00 | 0.11 | 0.11 | 82 | 1010.0 |
| 20260507001034 | 68 | 0 | 0.0 | 0.0 | 0.00 | 0.11 | 0.11 | 82 | 1010.0 |
| 20260507000533 | 68 | 0 | 0.0 | 0.0 | 0.00 | 0.11 | 0.11 | 82 | 1010.1 |
| 20260507000043 | 69 | 0 | 0.0 | 0.0 | 0.00 | 0.11 | 0.11 | 82 | 1010.1 |
| 20260506235533 | 69 | 0 | 0.0 | 0.0 | 0.00 | 0.11 | 0.11 | 82 | 1010.2 |
| 20260506235032 | 69 | 0 | 0.0 | 0.0 | 0.00 | 0.11 | 0.11 | 81 | 1010.1 |
| 20260506234542 | 69 | 0 | 0.0 | 0.0 | 0.00 | 0.11 | 0.11 | 81 | 1010.1 |
| 20260506234032 | 69 | 0 | 0.0 | 0.0 | 0.00 | 0.11 | 0.11 | 81 | 1010.1 |
| 20260506233533 | 69 | 0 | 0.0 | 0.0 | 0.00 | 0.11 | 0.11 | 80 | 1009.8 |
| 20260506233047 | 69 | 0 | 0.0 | 0.0 | 0.00 | 0.11 | 0.11 | 79 | 1009.7 |
| 20260506232532 | 70 | 0 | 0.0 | 0.0 | 0.00 | 0.11 | 0.11 | 79 | 1009.7 |
| 20260506232032 | 70 | 0 | 0.0 | 0.0 | 0.00 | 0.11 | 0.11 | 79 | 1009.7 |
| 20260506231546 | 70 | 0 | 0.0 | 3.0 | 0.00 | 0.11 | 0.11 | 79 | 1009.7 |
| 20260506231032 | 70 | 0 | 0.0 | 3.0 | 0.00 | 0.11 | 0.11 | 78 | 1009.8 |
| 20260506230534 | 70 | 221 | 0.0 | 3.0 | 0.00 | 0.11 | 0.11 | 78 | 1009.7 |
| 20260506230052 | 70 | 0 | 0.0 | 3.0 | 0.00 | 0.11 | 0.11 | 79 | 1009.6 |
| 20260506225533 | 70 | 0 | 0.0 | 0.0 | 0.00 | 0.11 | 0.11 | 79 | 1009.5 |
| 20260506225035 | 70 | 0 | 0.0 | 0.0 | 0.00 | 0.11 | 0.11 | 79 | 1009.7 |
| 20260506224542 | 70 | 0 | 0.0 | 0.0 | 0.00 | 0.11 | 0.11 | 80 | 1009.7 |
| 20260506224028 | 69 | 0 | 0.0 | 0.0 | 0.00 | 0.11 | 0.11 | 80 | 1009.7 |
| 20260506223528 | 69 | 0 | 0.0 | 0.0 | 0.00 | 0.11 | 0.11 | 79 | 1009.8 |
| 20260506223045 | 69 | 0 | 0.0 | 0.0 | 0.00 | 0.11 | 0.11 | 80 | 1009.8 |
| 20260506222533 | 69 | 0 | 0.0 | 1.0 | 0.00 | 0.11 | 0.11 | 80 | 1009.7 |
| 20260506222034 | 69 | 0 | 0.0 | 1.0 | 0.00 | 0.11 | 0.11 | 79 | 1009.7 |
| 20260506221545 | 69 | 0 | 0.0 | 0.0 | 0.00 | 0.11 | 0.11 | 79 | 1009.8 |
| 20260506221032 | 69 | 0 | 0.0 | 0.0 | 0.00 | 0.11 | 0.11 | 79 | 1009.9 |
| 20260506220532 | 69 | 0 | 0.0 | 0.0 | 0.00 | 0.11 | 0.11 | 79 | 1009.9 |
| 20260506220052 | 70 | 0 | 0.0 | 0.0 | 0.00 | 0.11 | 0.11 | 78 | 1009.8 |
| 20260506215533 | 70 | 0 | 0.0 | 2.0 | 0.00 | 0.11 | 0.11 | 78 | 1009.7 |
| 20260506215032 | 70 | 0 | 0.0 | 3.0 | 0.00 | 0.11 | 0.11 | 78 | 1009.7 |
| 20260506214601 | 70 | 0 | 0.0 | 3.0 | 0.00 | 0.11 | 0.11 | 76 | 1009.7 |
| 20260506214033 | 70 | 0 | 0.0 | 3.0 | 0.00 | 0.11 | 0.11 | 77 | 1009.7 |
| 20260506213533 | 70 | 0 | 0.0 | 4.0 | 0.00 | 0.11 | 0.11 | 78 | 1009.6 |
| 20260506213043 | 70 | 0 | 0.0 | 5.0 | 0.00 | 0.11 | 0.11 | 77 | 1009.8 |
| 20260506212534 | 70 | 0 | 0.0 | 5.0 | 0.00 | 0.11 | 0.11 | 79 | 1009.7 |
| 20260506212034 | 70 | 0 | 0.0 | 2.0 | 0.00 | 0.11 | 0.11 | 78 | 1009.7 |
| 20260506211553 | 70 | 0 | 0.0 | 3.0 | 0.00 | 0.11 | 0.11 | 78 | 1009.8 |
| 20260506211034 | 70 | 0 | 0.0 | 4.0 | 0.00 | 0.11 | 0.11 | 78 | 1009.8 |
| 20260506210535 | 69 | 0 | 0.0 | 5.0 | 0.00 | 0.11 | 0.11 | 79 | 1009.8 |
| 20260506210049 | 69 | 0 | 0.0 | 5.0 | 0.00 | 0.11 | 0.11 | 79 | 1009.8 |
| 20260506205534 | 69 | 0 | 0.0 | 3.0 | 0.00 | 0.11 | 0.11 | 80 | 1009.9 |
| 20260506205034 | 69 | 0 | 0.0 | 2.0 | 0.00 | 0.11 | 0.11 | 81 | 1009.8 |
| 20260506204546 | 69 | 0 | 0.0 | 5.0 | 0.00 | 0.11 | 0.11 | 81 | 1009.8 |
| 20260506204033 | 69 | 0 | 0.0 | 5.0 | 0.00 | 0.11 | 0.11 | 82 | 1010.0 |
| 20260506203535 | 68 | 331 | 0.0 | 3.0 | 0.00 | 0.11 | 0.11 | 85 | 1010.0 |
| 20260506203044 | 68 | 0 | 0.0 | 0.0 | 0.00 | 0.11 | 0.11 | 85 | 1009.9 |
| 20260506202535 | 67 | 0 | 0.0 | 0.0 | 0.00 | 0.11 | 0.11 | 86 | 1009.7 |
| 20260506202035 | 67 | 0 | 0.0 | 0.0 | 0.00 | 0.11 | 0.11 | 86 | 1009.7 |
| 20260506201547 | 67 | 0 | 0.0 | 0.0 | 0.00 | 0.11 | 0.11 | 86 | 1009.8 |
| 20260506201035 | 67 | 0 | 0.0 | 0.0 | 0.00 | 0.11 | 0.11 | 86 | 1009.8 |
| 20260506200533 | 67 | 0 | 0.0 | 0.0 | 0.00 | 0.11 | 0.11 | 86 | 1010.1 |
| 20260506200041 | 67 | 0 | 0.0 | 0.0 | 0.00 | 0.11 | 0.11 | 86 | 1009.9 |
| 20260506195533 | 67 | 0 | 0.0 | 0.0 | 0.00 | 0.11 | 0.11 | 86 | 1010.0 |
| 20260506195033 | 67 | 0 | 0.0 | 0.0 | 0.00 | 0.11 | 0.11 | 85 | 1010.2 |
| 20260506194549 | 67 | 0 | 0.0 | 0.0 | 0.00 | 0.11 | 0.11 | 86 | 1009.9 |
| 20260506194034 | 66 | 0 | 0.0 | 1.0 | 0.00 | 0.11 | 0.11 | 86 | 1009.7 |
| 20260506193534 | 66 | 0 | 0.0 | 1.0 | 0.00 | 0.11 | 0.11 | 85 | 1009.6 |
| 20260506193047 | 66 | 0 | 0.0 | 1.0 | 0.00 | 0.11 | 0.11 | 85 | 1009.2 |
| 20260506192534 | 66 | 0 | 0.0 | 2.0 | 0.00 | 0.11 | 0.11 | 86 | 1009.1 |
| 20260506192034 | 66 | 0 | 0.0 | 2.0 | 0.00 | 0.11 | 0.11 | 87 | 1009.2 |
| 20260506191545 | 66 | 0 | 0.0 | 0.0 | 0.00 | 0.11 | 0.11 | 87 | 1009.6 |
| 20260506191034 | 65 | 0 | 0.0 | 0.0 | 0.00 | 0.11 | 0.11 | 87 | 1009.8 |
| 20260506190533 | 65 | 0 | 0.0 | 3.0 | 0.00 | 0.11 | 0.11 | 87 | 1010.0 |
| 20260506190042 | 65 | 0 | 0.0 | 4.0 | 0.00 | 0.11 | 0.11 | 87 | 1010.3 |
| 20260506185533 | 65 | 180 | 0.0 | 4.0 | 0.00 | 0.11 | 0.11 | 87 | 1010.2 |
| 20260506185033 | 65 | 0 | 0.0 | 0.0 | 0.00 | 0.11 | 0.11 | 87 | 1010.3 |
| 20260506184549 | 64 | 0 | 0.0 | 1.0 | 0.00 | 0.11 | 0.11 | 87 | 1010.5 |
| 20260506184116 | 64 | 0 | 0.0 | 1.0 | 0.00 | 0.11 | 0.11 | 87 | 1010.7 |
| 20260506183532 | 64 | 0 | 0.0 | 2.0 | 0.00 | 0.11 | 0.11 | 87 | 1010.2 |
| 20260506183041 | 64 | 0 | 0.0 | 2.0 | 0.00 | 0.11 | 0.11 | 87 | 1010.3 |
| 20260506182528 | 64 | 0 | 0.0 | 2.0 | 0.00 | 0.11 | 0.11 | 87 | 1010.5 |
| 20260506182034 | 64 | 0 | 0.0 | 4.0 | 0.00 | 0.11 | 0.11 | 86 | 1010.9 |
| 20260506181540 | 64 | 0 | 0.0 | 4.0 | 0.00 | 0.11 | 0.11 | 87 | 1010.8 |
| 20260506181032 | 64 | 0 | 0.0 | 4.0 | 0.00 | 0.11 | 0.11 | 86 | 1011.0 |
| 20260506180534 | 64 | 0 | 0.0 | 3.0 | 0.00 | 0.11 | 0.11 | 86 | 1011.2 |
| 20260506180045 | 64 | 0 | 0.0 | 3.0 | 0.00 | 0.11 | 0.11 | 86 | 1011.3 |
| 20260506175535 | 64 | 0 | 0.0 | 2.0 | 0.00 | 0.11 | 0.11 | 86 | 1011.4 |
| 20260506175028 | 64 | 0 | 0.0 | 9.0 | 0.00 | 0.11 | 0.11 | 86 | 1011.4 |
| 20260506174546 | 64 | 0 | 0.0 | 9.0 | 0.00 | 0.11 | 0.11 | 86 | 1011.4 |
| 20260506174029 | 64 | 180 | 1.0 | 8.0 | 0.00 | 0.11 | 0.11 | 86 | 1011.3 |
| 20260506173529 | 64 | 0 | 0.0 | 8.0 | 0.00 | 0.11 | 0.11 | 87 | 1011.5 |
| 20260506173042 | 64 | 0 | 0.0 | 4.0 | 0.00 | 0.11 | 0.11 | 87 | 1011.3 |
| 20260506172528 | 64 | 0 | 0.0 | 0.0 | 0.00 | 0.11 | 0.11 | 87 | 1011.4 |
| 20260506172029 | 63 | 0 | 0.0 | 2.0 | 0.00 | 0.11 | 0.11 | 87 | 1011.3 |
| 20260506171539 | 63 | 0 | 0.0 | 2.0 | 0.00 | 0.11 | 0.11 | 87 | 1011.4 |
| 20260506171028 | 63 | 0 | 0.0 | 2.0 | 0.00 | 0.11 | 0.11 | 87 | 1011.3 |
| 20260506170531 | 63 | 0 | 0.0 | 0.0 | 0.00 | 0.11 | 0.11 | 87 | 1011.3 |
| 20260506170038 | 63 | 0 | 0.0 | 0.0 | 0.00 | 0.11 | 0.11 | 87 | 1011.3 |
| 20260506165528 | 63 | 0 | 0.0 | 2.0 | 0.00 | 0.11 | 0.11 | 88 | 1011.3 |
| 20260506165032 | 63 | 0 | 0.0 | 2.0 | 0.00 | 0.11 | 0.11 | 88 | 1011.7 |
| 20260506164541 | 63 | 0 | 0.0 | 2.0 | 0.01 | 0.11 | 0.11 | 88 | 1011.7 |